When you browse on this site, cookies collect data to enhance your experience and personalize the content and advertising you see.
Visit our Privacy Policy to learn more. By continuing to use the site, you agree to this use of cookies and data.
  • In Germany
  • List of Countries
  • For 7 days
  • Water Temperature
  • Satellite Maps
  • Weather Map
  • Weather Widgets
  • user-avatar
    Login

    Hourly Weather Zhlobin

    Today, 22 May, Wednesday

    Time Temperature Precipitation Wind Pressure Humidity
    00:00 +14°C° 0 mm 3 mps 746 mmHg 95%
    01:00 +14°C° 0 mm 3 mps 745 mmHg 96%
    02:00 +14°C° 0 mm 2 mps 745 mmHg 97%
    03:00 +14°C° 0 mm 2 mps 745 mmHg 97%
    04:00 +14°C° 0 mm 2 mps 745 mmHg 97%
    05:00 +14°C° 0 mm 2 mps 745 mmHg 97%
    06:00 +16°C° 0 mm 2 mps 745 mmHg 88%
    07:00 +17°C° 0 mm 2 mps 745 mmHg 80%
    08:00 +19°C° 0 mm 2 mps 745 mmHg 71%
    09:00 +21°C° 0 mm 2 mps 745 mmHg 63%
    10:00 +23°C° 0 mm 2 mps 745 mmHg 56%
    11:00 +25°C° 0 mm 2 mps 745 mmHg 48%
    12:00 +25°C° 0 mm 2 mps 744 mmHg 46%
    13:00 +25°C° 0 mm 2 mps 744 mmHg 44%
    14:00 +26°C° 0 mm 2 mps 744 mmHg 41%
    15:00 +26°C° 0 mm 2 mps 744 mmHg 43%
    16:00 +25°C° 0 mm 1 mps 744 mmHg 45%
    17:00 +25°C° 0 mm 1 mps 743 mmHg 47%
    18:00 +23°C° 0 mm 1 mps 743 mmHg 53%
    19:00 +21°C° 0 mm 1 mps 743 mmHg 59%
    20:00 +19°C° 0 mm 1 mps 743 mmHg 65%
    21:00 +18°C° 0 mm 1 mps 743 mmHg 66%
    22:00 +18°C° 0 mm 1 mps 743 mmHg 68%
    23:00 +16°C° 0 mm 1 mps 743 mmHg 69%

    Tomorrow, 23 May, Thursday

    Time Temperature Precipitation Wind Pressure Humidity
    00:00 +16°C° 0 mm 1 mps 743 mmHg 72%
    01:00 +15°C° 0 mm 1 mps 743 mmHg 74%
    02:00 +15°C° 0 mm 1 mps 744 mmHg 77%
    03:00 +15°C° 0 mm 2 mps 743 mmHg 79%
    04:00 +15°C° 0 mm 2 mps 743 mmHg 81%
    05:00 +15°C° 0 mm 2 mps 743 mmHg 83%
    06:00 +17°C° 0 mm 2 mps 744 mmHg 77%
    07:00 +19°C° 0 mm 2 mps 744 mmHg 71%
    08:00 +21°C° 0 mm 2 mps 744 mmHg 65%
    09:00 +23°C° 0 mm 2 mps 744 mmHg 59%
    10:00 +24°C° 0 mm 2 mps 744 mmHg 53%
    11:00 +26°C° 0 mm 2 mps 744 mmHg 47%
    12:00 +26°C° 0 mm 2 mps 743 mmHg 46%
    13:00 +26°C° 0 mm 2 mps 743 mmHg 45%
    14:00 +26°C° 0 mm 2 mps 743 mmHg 44%
    15:00 +26°C° 0 mm 2 mps 743 mmHg 46%
    16:00 +26°C° 0 mm 2 mps 743 mmHg 47%
    17:00 +26°C° 0 mm 2 mps 743 mmHg 48%
    18:00 +24°C° 0 mm 2 mps 743 mmHg 53%
    19:00 +23°C° 0 mm 2 mps 743 mmHg 58%
    20:00 +20°C° 0 mm 2 mps 743 mmHg 63%
    21:00 +19°C° 0 mm 2 mps 743 mmHg 66%
    22:00 +18°C° 0 mm 2 mps 743 mmHg 69%
    23:00 +17°C° 0 mm 2 mps 744 mmHg 72%

    Day after tomorrow, 24 May, Friday

    Time Temperature Precipitation Wind Pressure Humidity
    00:00 +17°C° 0 mm 2 mps 744 mmHg 76%
    01:00 +16°C° 0 mm 2 mps 744 mmHg 80%
    02:00 +16°C° 0 mm 1 mps 744 mmHg 84%
    03:00 +16°C° 0 mm 1 mps 744 mmHg 85%
    04:00 +16°C° 0 mm 1 mps 744 mmHg 85%
    05:00 +16°C° 0 mm 1 mps 744 mmHg 86%
    06:00 +19°C° 0 mm 1 mps 744 mmHg 79%
    07:00 +21°C° 0 mm 1 mps 744 mmHg 71%
    08:00 +23°C° 0 mm 1 mps 744 mmHg 64%
    09:00 +24°C° 0 mm 1 mps 744 mmHg 58%
    10:00 +26°C° 0 mm 2 mps 744 mmHg 52%
    11:00 +27°C° 0 mm 2 mps 744 mmHg 46%
    12:00 +27°C° 0 mm 2 mps 744 mmHg 46%
    13:00 +27°C° 0 mm 2 mps 744 mmHg 46%
    14:00 +27°C° 0 mm 2 mps 743 mmHg 45%
    15:00 +26°C° 0 mm 2 mps 743 mmHg 49%
    16:00 +25°C° 0 mm 2 mps 743 mmHg 53%
    17:00 +25°C° 0 mm 2 mps 743 mmHg 57%
    18:00 +23°C° 0.2 mm 2 mps 743 mmHg 66%
    19:00 +20°C° 0.2 mm 2 mps 743 mmHg 75%
    20:00 +19°C° 0.2 mm 2 mps 743 mmHg 83%
    21:00 +18°C° 0.3 mm 2 mps 743 mmHg 85%
    22:00 +18°C° 0.3 mm 1 mps 743 mmHg 87%
    23:00 +18°C° 0.3 mm 1 mps 743 mmHg 89%

    25 May, Saturday

    Time Temperature Precipitation Wind Pressure Humidity
    00:00 +18°C° 0.2 mm 1 mps 743 mmHg 90%
    01:00 +16°C° 0.2 mm 1 mps 742 mmHg 92%
    02:00 +16°C° 0.2 mm 1 mps 742 mmHg 94%
    03:00 +16°C° 0.2 mm 1 mps 742 mmHg 95%
    04:00 +16°C° 0.2 mm 1 mps 742 mmHg 96%
    05:00 +15°C° 0.2 mm 1 mps 742 mmHg 96%
    06:00 +16°C° 0.1 mm 2 mps 742 mmHg 94%
    07:00 +17°C° 0.1 mm 3 mps 742 mmHg 92%
    08:00 +18°C° 0.1 mm 3 mps 742 mmHg 89%
    09:00 +18°C° 0.1 mm 4 mps 742 mmHg 87%
    10:00 +18°C° 0.1 mm 4 mps 742 mmHg 85%
    11:00 +17°C° 0.1 mm 5 mps 742 mmHg 83%
    12:00 +19°C° 0 mm 4 mps 742 mmHg 77%
    13:00 +20°C° 0 mm 4 mps 742 mmHg 71%
    14:00 +21°C° 0 mm 4 mps 742 mmHg 64%
    15:00 +21°C° 0 mm 4 mps 742 mmHg 60%
    16:00 +22°C° 0 mm 4 mps 742 mmHg 55%
    17:00 +22°C° 0 mm 4 mps 742 mmHg 51%
    18:00 +20°C° 0 mm 4 mps 742 mmHg 55%
    19:00 +18°C° 0 mm 3 mps 742 mmHg 59%
    20:00 +16°C° 0 mm 3 mps 742 mmHg 63%
    21:00 +14°C° 0 mm 3 mps 742 mmHg 68%
    22:00 +14°C° 0 mm 2 mps 742 mmHg 73%
    23:00 +14°C° 0 mm 2 mps 742 mmHg 78%

    26 May, Sunday

    Time Temperature Precipitation Wind Pressure Humidity
    00:00 +13°C° 0 mm 2 mps 742 mmHg 83%
    01:00 +13°C° 0 mm 2 mps 742 mmHg 89%
    02:00 +12°C° 0 mm 2 mps 743 mmHg 95%
    03:00 +12°C° 0 mm 2 mps 743 mmHg 95%
    04:00 +11°C° 0 mm 3 mps 743 mmHg 95%
    05:00 +11°C° 0 mm 3 mps 743 mmHg 94%
    06:00 +11°C° 0 mm 3 mps 743 mmHg 88%
    07:00 +12°C° 0 mm 3 mps 743 mmHg 82%
    08:00 +13°C° 0 mm 3 mps 743 mmHg 76%
    09:00 +13°C° 0 mm 3 mps 743 mmHg 72%
    10:00 +14°C° 0 mm 4 mps 743 mmHg 68%
    11:00 +15°C° 0 mm 4 mps 743 mmHg 64%
    12:00 +15°C° 0.1 mm 4 mps 743 mmHg 63%
    13:00 +15°C° 0.1 mm 5 mps 743 mmHg 62%
    14:00 +16°C° 0.1 mm 5 mps 743 mmHg 62%
    15:00 +16°C° 0 mm 5 mps 743 mmHg 61%
    16:00 +16°C° 0 mm 5 mps 742 mmHg 61%
    17:00 +16°C° 0 mm 5 mps 742 mmHg 60%
    18:00 +15°C° 0.1 mm 4 mps 742 mmHg 68%
    19:00 +14°C° 0.1 mm 4 mps 742 mmHg 75%
    20:00 +12°C° 0.1 mm 3 mps 742 mmHg 82%
    21:00 +12°C° 0.1 mm 3 mps 742 mmHg 84%
    22:00 +11°C° 0.1 mm 3 mps 742 mmHg 85%
    23:00 +11°C° 0.1 mm 3 mps 742 mmHg 86%

    27 May, Monday

    Time Temperature Precipitation Wind Pressure Humidity
    00:00 +10°C° 0 mm 4 mps 742 mmHg 86%
    01:00 +10°C° 0 mm 4 mps 742 mmHg 86%
    02:00 +10°C° 0 mm 4 mps 742 mmHg 86%
    03:00 +10°C° 0.1 mm 4 mps 742 mmHg 86%
    04:00 +10°C° 0.1 mm 4 mps 743 mmHg 85%
    05:00 +10°C° 0.1 mm 4 mps 743 mmHg 85%
    06:00 +9°C° 0.1 mm 5 mps 743 mmHg 77%
    07:00 +10°C° 0.1 mm 6 mps 743 mmHg 68%
    08:00 +11°C° 0.1 mm 6 mps 744 mmHg 60%
    09:00 +13°C° 0 mm 6 mps 744 mmHg 57%
    10:00 +14°C° 0 mm 6 mps 744 mmHg 54%
    11:00 +15°C° 0 mm 6 mps 744 mmHg 50%
    12:00 +16°C° 0 mm 6 mps 745 mmHg 49%
    13:00 +16°C° 0 mm 6 mps 745 mmHg 48%
    14:00 +17°C° 0 mm 6 mps 745 mmHg 47%
    15:00 +17°C° 0 mm 6 mps 745 mmHg 48%
    16:00 +17°C° 0 mm 6 mps 745 mmHg 50%
    17:00 +17°C° 0 mm 5 mps 745 mmHg 52%
    18:00 +15°C° 0 mm 4 mps 746 mmHg 59%
    19:00 +14°C° 0 mm 2 mps 746 mmHg 66%
    20:00 +13°C° 0 mm 1 mps 746 mmHg 73%
    21:00 +12°C° 0 mm 1 mps 746 mmHg 74%
    22:00 +12°C° 0 mm 2 mps 746 mmHg 75%
    23:00 +12°C° 0 mm 2 mps 746 mmHg 76%
    Show more